Terminal Aerodrome Forecast
Issued by NWS Grand Forks, ND

Home | Current Version | Previous Version | Text Only | Print | Product List | Glossary Off
Versions: 1 2 3 4 5 6 7 8 9 10 11 12 13 14 15 16 17 18 19

000
FTUS43 KFGF 290900 AAB
TAFFAR
TAF AMD
KFAR 290936Z 2910/3006 01008KT 5SM BR OVC005
     FM291200 02008KT P6SM BKN012
     FM291800 03010KT P6SM OVC025
     FM292100 06010KT P6SM BKN040=

USA.gov is the U.S. government's official web portal to all federal, state and local government web resources and services.